Location: Sungai Dangang
(2.7500°N, 113.8333°E)
Time: 01:48:08
(UTC+00:00)

Ariane H10+ - Pass Details

Date: 03 October 2021
Orbit: 237 x 7755 km, 6.8° (Epoch: 21 October)

Event Time Altitude Azimuth Distance (km) Brightness Sun altitude
Exits shadow 19:23:17 72° 206° (SSW) 2,662 4.4 -42.6°
Maximum altitude 19:24:44 75° 169° (SSE) 2,839 4.6 -42.3°
Drops below altitude 10° 20:02:24 10° 86° (E) 10,652 8.6 -32.9°
Sets 20:15:19 0° 85° (E) 12,423 9.3 -29.7°
